Miscellaneous Local Product
Issued by NWS North Platte, NE

Home | Current Version | Previous Version | Text Only | Print | Product List | Glossary On
Versions: 1 2 3 4 5 6 7 8 9 10 11 12 13 14 15 16 17 18 19 20 21 22 23 24 25 26 27 28 29 30 31 32 33 34 35 36 37 38 39 40 41 42 43 44 45 46 47 48 49 50
000
AXUS43 KLBF 051010
MISLBF


WESTERN AND NORTH CENTRAL NEBRASKA HOURLY WEATHER ROUNDUP
NATIONAL WEATHER SERVICE NORTH PLATTE NE
500 AM CDT TUE MAY 05 2015

***STATIONS NOT REPORTING VARIABLES SUCH AS SKY/WEATHER OR
PRESSURE ARE PROVIDED BY THE NEBRASKA DEPARTMENT OF
ROADS...RAWS...AND APRS NETWORKS...AND ARE NOT UNDER
NATIONAL WEATHER SERVICE QUALITY CONTROL***

...OBSERVATIONS IN AND NEAR THE EASTERN PANHANDLE OF NEBRASKA...

CITY           SKY/WX    TMP DP  RH WIND       PRES   REMARKS
PINE RIDGE     MOCLDY    40  34  79 NW5       30.04F
CHADRON        MOCLDY    44  39  82 CALM      30.03F
ALLIANCE       CLOUDY    48  44  86 SE5       30.03F
SIDNEY         CLOUDY    45  44  97 S7        30.06S FOG
WHITECLAY        N/A     38  33  82 CALM        N/A
CRESCENT LAKE    N/A     47  45  93 E3          N/A
BIG SPRINGS      N/A     49  47  94 CALM        N/A
$$

...OBSERVATIONS IN NORTH CENTRAL NEBRASKA...

CITY           SKY/WX    TMP DP  RH WIND       PRES   REMARKS
VALENTINE      CLOUDY    50  40  68 E5        30.07F
THEDFORD       CLOUDY    53  51  92 CALM      30.07S FOG
AINSWORTH      CLOUDY    54  47  78 CALM      30.07S
O`NEILL        CLOUDY    53  50  89 NE3       30.08S
ORD            FOG       54  53  97 E3        30.05R VSB 1/2
BROKEN BOW     FOG       53  52  96 E3        30.05S VSB 1/4
BROWNLEE         N/A     54  49  82 E5          N/A
VALENTINE NWR    N/A     52  47  82 SE3         N/A
SPRINGVIEW       N/A     50  42  72 CALM        N/A
HALSEY           N/A     51  49  95 CALM        N/A
BREWSTER         N/A     54  54  99 CALM        N/A
ROSE             N/A     54  54  99 CALM        N/A
NEWPORT          N/A     54  52  94 E5          N/A
SARGENT          N/A     53  52  97 CALM        N/A
COMSTOCK         N/A     56  56  99 CALM        N/A
EWING            N/A     55  53  92 E3          N/A
$$

...OBSERVATIONS IN SOUTHWEST NEBRASKA AND FAR NORTHEAST COLORADO...

CITY           SKY/WX    TMP DP  RH WIND       PRES   REMARKS
WRAY           CLOUDY   N/A N/A N/A CALM      30.04F
IMPERIAL       FOG       50  49  96 CALM      30.04F VSB 1/2
OGALLALA       CLOUDY    49  49  99 CALM      30.05F FOG
NORTH PLATTE   CLOUDY    51  50  96 E6        30.04F FOG
MCCOOK         FOG       53  52  96 NE6       30.03F VSB 3/4
LEXINGTON      DRIZZLE   55  54  97 CALM      30.04F
PAXTON           N/A     51  49  95 CALM        N/A
SUTHERLAND       N/A     46  45  93 E3          N/A
GOTHENBURG       N/A     53  51  92 E3          N/A
CALLAWAY         N/A     52  51  97 E3          N/A
$$

...NORTH PLATTE AREA...

CITY           SKY/WX    TMP DP  RH WIND       PRES   REMARKS
AIRPORT        CLOUDY    51  50  96 E6        30.04F FOG
DOWNTOWN         N/A     51  49  95 CALM        N/A
$$

...SOME WEATHER OBSERVATIONS FROM AROUND THE REGION...

CITY           SKY/WX    TMP DP  RH WIND       PRES   REMARKS
DENVER         FOG       48  47  96 E9        30.02R VSB 1/2
LARAMIE        CLOUDY    41  40  96 SE18      30.01F
CHEYENNE       FOG       44  43  96 S8        30.03F VSB 1/4
SCOTTSBLUFF    CLOUDY    48  44  86 SE9       30.03F
RAPID CITY     CLEAR     40  34  79 SE5       30.02F
PIERRE         CLOUDY    53  34  48 SE7       30.08S
WINNER         CLOUDY    49  38  65 E7        30.07F
SIOUX FALLS    CLOUDY    45  34  65 N5        30.12S
OMAHA          CLOUDY    58  57  97 N3        30.04R FOG
GRAND ISLAND   FOG       55  55 100 CALM      30.04F VSB 1/4
KANSAS CITY    CLOUDY    60  59  96 NE5       30.08R FOG
WICHITA        MOCLDY    64  54  69 SE8       30.03F
HAYS           CLOUDY    59  52  77 SE10      30.01F
LIBERAL        CLOUDY    61  55  82 E5        29.96F
GOODLAND       CLOUDY    51  51 100 E7        30.04F FOG
$$



USA.gov is the U.S. government's official web portal to all federal, state and local government web resources and services.